Regional Weather Roundup
Issued by NWS

Home | Current Version | Previous Version | Text Only | Print | Product List | Glossary Off
Versions: 1 2 3 4 5 6 7 8 9 10 11 12 13 14 15 16 17 18 19 20 21 22 23 24 25 26 27 28 29 30 31 32 33 34 35 36 37 38 39 40 41 42 43 44 45 46 47 48 49 50

000
ASUS43 KLMK 230302
RWRKY
KENTUCKY REGIONAL WEATHER ROUNDUP
NATIONAL WEATHER SERVICE LOUISVILLE KY
1000 PM EST WED NOV 22 2017

NOTE "FAIR" INDICATES FEW OR NO CLOUDS BELOW 12,000 FEET
WITH NO SIGNIFICANT WEATHER AND/OR OBSTRUCTIONS TO VISIBILITY.

KYZ001>023-026-027-061>063-070>075-230400-
WESTERN AND SOUTH CENTRAL KENTUCKY

CITY           SKY/WX    TMP DP  RH WIND       PRES   REMARKS
PADUCAH        CLOUDY    28  20  71 CALM      30.28S
HENDERSON      CLOUDY    26  24  92 CALM      30.27F
OWENSBORO      CLEAR     28  23  81 CALM      30.27F
HOPKINSVILLE   CLEAR     33  22  65 N6        30.26S WCI  27
BOWLING GREEN  CLEAR     35  24  64 CALM      30.27R
GLASGOW        NOT AVBL
$$

KYZ024-025-028>034-038-045-046-053-230400-
NORTH CENTRAL KENTUCKY

CITY           SKY/WX    TMP DP  RH WIND       PRES   REMARKS
LOUISVILLE/SDF CLEAR     35  24  64 CALM      30.26S
LOUISVILLE/LOU CLEAR     31  25  78 CALM      30.26F
FORT KNOX      CLEAR     28  21  77 CALM      30.24S
$$

KYZ035>037-039>044-047>052-055>060-089>105-230400-
NORTHEAST KENTUCKY

CITY           SKY/WX    TMP DP  RH WIND       PRES   REMARKS
LEXINGTON      CLOUDY    30  22  72 E5        30.24F WCI  25
COVINGTON      CLEAR     31  24  75 E3        30.24F
FRANKFORT      CLOUDY    30  22  72 CALM      30.24F
$$

KYZ054-064>069-076>088-106>120-230400-
SOUTHEAST KENTUCKY

CITY           SKY/WX    TMP DP  RH WIND       PRES   REMARKS
JACKSON        CLEAR     30  23  75 CALM      30.22S
LONDON         CLEAR     32  23  69 CALM      30.22R
SOMERSET       NOT AVBL
MIDDLESBORO    CLEAR     32  28  84 CALM      30.21S
MONTICELLO     CLEAR     29  25  85 CALM      30.25S
$$





USA.gov is the U.S. government's official web portal to all federal, state and local government web resources and services.